TimeCET,TemperatureF,Dew PointF,Humidity,Sea Level PressureIn,VisibilityMPH,Wind Direction,Wind SpeedMPH,Gust SpeedMPH,PrecipitationIn,Events,Conditions,WindDirDegrees,DateUTC
12:15 AM,48.2,41.0,76,29.65,6.2,SE,6.9,-,N/A,,Scattered Clouds,130,2012-11-30 23:15:00
12:45 AM,50.0,41.0,71,29.65,6.2,SE,12.7,-,N/A,Thunderstorm,Thunderstorm,130,2012-11-30 23:45:00
1:15 AM,48.2,39.2,71,29.65,6.2,SE,8.1,-,N/A,Thunderstorm,Thunderstorm,140,2012-12-01 00:15:00
1:45 AM,48.2,41.0,76,29.65,6.2,SE,9.2,-,N/A,Thunderstorm,Thunderstorm,130,2012-12-01 00:45:00
2:15 AM,48.2,39.2,71,29.68,6.2,NW,11.5,24.2,N/A,Thunderstorm,Thunderstorm,320,2012-12-01 01:15:00
2:45 AM,46.4,42.8,87,29.71,6.2,North,6.9,-,N/A,Rain-Thunderstorm,Light Thunderstorms and Rain,10,2012-12-01 01:45:00
3:15 AM,46.4,42.8,87,29.71,4.3,ENE,11.5,-,N/A,Rain-Thunderstorm,Light Thunderstorms and Rain,70,2012-12-01 02:15:00
3:45 AM,46.4,42.8,87,29.71,5.0,NE,9.2,-,N/A,Rain,Light Rain,40,2012-12-01 02:45:00
4:15 AM,44.6,44.6,100,29.71,5.0,ENE,8.1,-,N/A,Rain,Light Rain,60,2012-12-01 03:15:00
4:45 AM,46.4,44.6,93,29.71,5.0,ENE,9.2,-,N/A,Rain,Light Rain,70,2012-12-01 03:45:00
5:15 AM,46.4,44.6,93,29.71,5.6,ENE,9.2,-,N/A,Rain,Light Rain,60,2012-12-01 04:15:00
5:45 AM,44.6,44.6,100,29.68,5.6,ENE,5.8,-,N/A,Rain,Light Rain,60,2012-12-01 04:45:00
6:15 AM,44.6,44.6,100,29.68,6.2,ENE,4.6,-,N/A,Rain,Light Rain,60,2012-12-01 05:15:00
6:45 AM,46.4,44.6,93,29.68,6.2,ENE,5.8,-,N/A,Rain,Light Rain,70,2012-12-01 05:45:00
7:15 AM,46.4,44.6,93,29.68,6.2,ENE,4.6,-,N/A,,Scattered Clouds,70,2012-12-01 06:15:00
7:45 AM,46.4,42.8,87,29.68,6.2,East,9.2,-,N/A,,Scattered Clouds,90,2012-12-01 06:45:00
8:15 AM,48.2,42.8,82,29.68,6.2,East,9.2,-,N/A,,Scattered Clouds,90,2012-12-01 07:15:00
8:45 AM,48.2,42.8,82,29.71,6.2,ENE,5.8,-,N/A,,Scattered Clouds,70,2012-12-01 07:45:00
9:15 AM,50.0,42.8,76,29.71,6.2,ENE,2.3,-,N/A,,Scattered Clouds,70,2012-12-01 08:15:00
9:45 AM,50.0,42.8,76,29.71,6.2,NW,2.3,-,N/A,,Scattered Clouds,320,2012-12-01 08:45:00
10:15 AM,50.0,44.6,82,29.74,6.2,ENE,2.3,-,N/A,,Scattered Clouds,70,2012-12-01 09:15:00
10:45 AM,51.8,44.6,76,29.74,6.2,East,2.3,-,N/A,Rain,Light Rain,100,2012-12-01 09:45:00
11:15 AM,46.4,44.6,93,29.74,2.5,WNW,9.2,-,N/A,Rain,Rain,300,2012-12-01 10:15:00
11:45 AM,46.4,44.6,93,29.77,2.5,NE,8.1,-,N/A,Rain,Rain,40,2012-12-01 10:45:00
12:15 PM,46.4,44.6,93,29.74,5.0,East,6.9,-,N/A,Rain,Light Rain,90,2012-12-01 11:15:00
12:45 PM,48.2,46.4,93,29.74,5.0,ESE,15.0,-,N/A,Rain,Light Rain,110,2012-12-01 11:45:00
1:15 PM,50.0,46.4,87,29.74,6.2,ESE,12.7,-,N/A,Rain,Light Rain,110,2012-12-01 12:15:00
1:45 PM,51.8,44.6,76,29.74,6.2,ESE,9.2,-,N/A,,Scattered Clouds,120,2012-12-01 12:45:00
2:15 PM,51.8,42.8,71,29.74,6.2,East,6.9,-,N/A,,Scattered Clouds,90,2012-12-01 13:15:00
2:45 PM,51.8,44.6,76,29.74,6.2,NW,3.5,-,N/A,,Scattered Clouds,320,2012-12-01 13:45:00
3:15 PM,53.6,44.6,72,29.74,6.2,East,1.2,-,N/A,,Scattered Clouds,80,2012-12-01 14:15:00
3:45 PM,53.6,44.6,72,29.74,6.2,East,4.6,-,N/A,,Scattered Clouds,90,2012-12-01 14:45:00
4:15 PM,51.8,44.6,76,29.74,6.2,ESE,9.2,-,N/A,,Scattered Clouds,120,2012-12-01 15:15:00
4:45 PM,50.0,44.6,82,29.74,6.2,ESE,8.1,-,N/A,,Scattered Clouds,110,2012-12-01 15:45:00
5:15 PM,48.2,44.6,87,29.77,6.2,ESE,8.1,-,N/A,,Scattered Clouds,110,2012-12-01 16:15:00
5:45 PM,48.2,44.6,87,29.77,6.2,ESE,9.2,-,N/A,,Scattered Clouds,110,2012-12-01 16:45:00
6:15 PM,50.0,44.6,82,29.77,6.2,ESE,10.4,-,N/A,,Scattered Clouds,110,2012-12-01 17:15:00
6:45 PM,48.2,44.6,87,29.77,6.2,East,4.6,-,N/A,,Scattered Clouds,90,2012-12-01 17:45:00
7:15 PM,48.2,44.6,87,29.77,6.2,ESE,3.5,-,N/A,,Scattered Clouds,110,2012-12-01 18:15:00
7:45 PM,48.2,42.8,82,29.77,6.2,NNE,2.3,-,N/A,,Scattered Clouds,30,2012-12-01 18:45:00
8:15 PM,48.2,44.6,87,29.77,6.2,Calm,Calm,-,N/A,Rain,Light Rain,0,2012-12-01 19:15:00
8:45 PM,51.8,46.4,82,29.77,6.2,SE,3.5,-,N/A,Rain,Light Rain,140,2012-12-01 19:45:00
9:15 PM,50.0,46.4,87,29.77,6.2,ENE,3.5,-,N/A,Rain,Light Rain,70,2012-12-01 20:15:00
9:45 PM,48.2,44.6,87,29.77,6.2,Calm,Calm,-,N/A,,Partly Cloudy,0,2012-12-01 20:45:00
10:15 PM,48.2,44.6,87,29.77,6.2,WNW,2.3,-,N/A,,Partly Cloudy,290,2012-12-01 21:15:00
10:45 PM,48.2,46.4,93,29.77,6.2,NW,5.8,-,N/A,,Scattered Clouds,320,2012-12-01 21:45:00
11:15 PM,48.2,46.4,93,29.77,6.2,NNW,2.3,-,N/A,Rain-Thunderstorm,Light Thunderstorms and Rain,340,2012-12-01 22:15:00
11:45 PM,48.2,46.4,93,29.77,6.2,NNW,5.8,-,N/A,Rain-Thunderstorm,Light Thunderstorms and Rain,330,2012-12-01 22:45:00